HKE558 VHHH-VVDN

Flight info

Callsign HKE558
Flight time 1h 30m
Altitude 38000
Route PECAN V11 IDOSI P901 IKELA/K0843F380 A1 KANGU
Aircraft A20N/M-SDE2E3FGHIRWXY/LB1

Departure

Time 2026-04-25 07:30
Airport Hong Kong International Airport (VHHH)

Arrival

Time 2026-04-25 09:01
Airport Da Nang International Airport (VVDN)
Time Latitude Longitude Altitude Speed Heading
2026-04-25 07:21 22.30825 113.91919 37 ft 0 kts 251°
2026-04-25 07:22 22.30826 113.91921 37 ft 2 kts 251°
2026-04-25 07:22 22.30831 113.91937 37 ft 2 kts 251°
2026-04-25 07:23 22.30836 113.91952 36 ft 2 kts 251°
2026-04-25 07:23 22.30840 113.91967 37 ft 2 kts 239°
2026-04-25 07:23 22.30853 113.91981 37 ft 3 kts 203°
2026-04-25 07:23 22.30874 113.91989 33 ft 3 kts 204°
2026-04-25 07:24 22.30894 113.92001 35 ft 3 kts 189°
2026-04-25 07:24 22.30903 113.92001 35 ft 0 kts 161°
2026-04-25 07:25 22.30883 113.92008 34 ft 8 kts 163°
2026-04-25 07:26 22.30799 113.92042 35 ft 16 kts 144°
2026-04-25 07:26 22.30835 113.92117 37 ft 15 kts 356°
2026-04-25 07:26 22.30941 113.92077 37 ft 17 kts 344°
2026-04-25 07:26 22.31061 113.92030 37 ft 20 kts 339°
2026-04-25 07:27 22.31199 113.91976 37 ft 22 kts 340°
2026-04-25 07:27 22.31351 113.91921 36 ft 24 kts 341°
2026-04-25 07:27 22.31485 113.91870 36 ft 21 kts 340°
2026-04-25 07:27 22.31587 113.91897 36 ft 16 kts 72°
2026-04-25 07:28 22.31626 113.92016 36 ft 18 kts 71°
2026-04-25 07:28 22.31675 113.92155 36 ft 21 kts 70°
2026-04-25 07:28 22.31724 113.92317 35 ft 24 kts 72°
2026-04-25 07:28 22.31786 113.92497 36 ft 26 kts 70°
2026-04-25 07:29 22.31845 113.92689 37 ft 28 kts 70°
2026-04-25 07:29 22.31920 113.92869 36 ft 22 kts 25°
2026-04-25 07:29 22.32032 113.92826 35 ft 15 kts 331°
2026-04-25 07:29 22.32041 113.92727 35 ft 18 kts 252°
2026-04-25 07:30 22.31927 113.92375 37 ft 84 kts 250°
2026-04-25 07:30 22.31665 113.91568 37 ft 140 kts 250°
2026-04-25 07:30 22.31297 113.90448 239 ft 165 kts 250°
2026-04-25 07:30 22.30895 113.89279 873 ft 167 kts 251°
2026-04-25 07:31 22.30513 113.88069 1461 ft 172 kts 251°
2026-04-25 07:31 22.30127 113.86826 2023 ft 181 kts 251°
2026-04-25 07:31 22.29701 113.85473 2424 ft 200 kts 251°
2026-04-25 07:31 22.29226 113.83987 2907 ft 215 kts 251°
2026-04-25 07:32 22.28730 113.82446 3715 ft 218 kts 251°
2026-04-25 07:32 22.28241 113.80935 4717 ft 215 kts 251°
2026-04-25 07:32 22.27747 113.79409 5628 ft 217 kts 251°
2026-04-25 07:32 22.27245 113.77859 6518 ft 220 kts 251°
2026-04-25 07:33 22.26738 113.76293 7331 ft 223 kts 251°
2026-04-25 07:33 22.26219 113.74720 8152 ft 226 kts 248°
2026-04-25 07:33 22.25341 113.73267 8339 ft 232 kts 224°
2026-04-25 07:33 22.23990 113.72283 8467 ft 242 kts 212°
2026-04-25 07:34 22.22407 113.71406 8587 ft 265 kts 198°
2026-04-25 07:34 22.20557 113.71291 8701 ft 270 kts 169°
2026-04-25 07:34 22.18798 113.71974 8816 ft 274 kts 158°
2026-04-25 07:34 22.17046 113.72802 8924 ft 274 kts 158°
2026-04-25 07:35 22.15293 113.73638 8992 ft 276 kts 158°
2026-04-25 07:35 22.13527 113.74468 8991 ft 275 kts 157°
2026-04-25 07:35 22.11862 113.75477 8995 ft 276 kts 146°
2026-04-25 07:35 22.10354 113.76792 8991 ft 288 kts 141°
2026-04-25 07:36 22.08756 113.78224 8990 ft 301 kts 141°
2026-04-25 07:36 22.07246 113.79781 8958 ft 301 kts 127°
2026-04-25 07:36 22.06307 113.81773 9121 ft 305 kts 105°
2026-04-25 07:36 22.05855 113.84018 9799 ft 308 kts 101°
2026-04-25 07:37 22.05405 113.86317 10523 ft 317 kts 102°
2026-04-25 07:37 22.04931 113.88702 10783 ft 341 kts 102°
2026-04-25 07:37 22.04362 113.91272 11114 ft 359 kts 109°
2026-04-25 07:37 22.03239 113.93689 11852 ft 362 kts 126°
2026-04-25 07:38 22.01539 113.95699 12581 ft 364 kts 140°
2026-04-25 07:38 21.99626 113.97477 13308 ft 369 kts 140°
2026-04-25 07:38 21.97663 113.99297 14022 ft 373 kts 141°
2026-04-25 07:38 21.95674 114.01140 14646 ft 377 kts 141°
2026-04-25 07:39 21.93523 114.02717 15249 ft 379 kts 154°
2026-04-25 07:39 21.91036 114.03780 15877 ft 380 kts 167°
2026-04-25 07:39 21.88468 114.04316 16448 ft 383 kts 173°
2026-04-25 07:39 21.85798 114.04811 17074 ft 387 kts 172°
2026-04-25 07:40 21.83132 114.05312 17662 ft 391 kts 172°
2026-04-25 07:40 21.80462 114.05818 18245 ft 395 kts 172°
2026-04-25 07:40 21.77759 114.06332 18767 ft 398 kts 172°
2026-04-25 07:40 21.75021 114.06855 19337 ft 400 kts 173°
2026-04-25 07:41 21.72262 114.07380 19886 ft 402 kts 173°
2026-04-25 07:41 21.69519 114.07902 20427 ft 405 kts 173°
2026-04-25 07:41 21.66728 114.08355 20952 ft 406 kts 178°
2026-04-25 07:41 21.63904 114.08390 21492 ft 404 kts 187°
2026-04-25 07:42 21.61112 114.07973 22045 ft 403 kts 196°
2026-04-25 07:42 21.58379 114.07256 22567 ft 405 kts 197°
2026-04-25 07:42 21.55628 114.06534 23121 ft 408 kts 197°
2026-04-25 07:42 21.52863 114.05815 23635 ft 410 kts 197°
2026-04-25 07:43 21.50074 114.05092 24058 ft 413 kts 198°
2026-04-25 07:43 21.47271 114.04367 24511 ft 415 kts 198°
2026-04-25 07:43 21.44478 114.03690 24926 ft 419 kts 194°
2026-04-25 07:43 21.41538 114.03314 25357 ft 425 kts 188°
2026-04-25 07:44 21.38568 114.03130 25761 ft 428 kts 188°
2026-04-25 07:44 21.35579 114.02937 26151 ft 430 kts 188°
2026-04-25 07:44 21.32578 114.02739 26551 ft 433 kts 188°
2026-04-25 07:44 21.29612 114.02541 26923 ft 435 kts 189°
2026-04-25 07:45 21.26569 114.02337 27313 ft 437 kts 189°
2026-04-25 07:45 21.23520 114.02134 27679 ft 439 kts 189°
2026-04-25 07:45 21.20448 114.01928 28043 ft 442 kts 189°
2026-04-25 07:45 21.17363 114.01722 28397 ft 444 kts 189°
2026-04-25 07:46 21.14262 114.01515 28747 ft 446 kts 189°
2026-04-25 07:46 21.11194 114.01311 29070 ft 448 kts 189°
2026-04-25 07:46 21.08072 114.01103 29419 ft 450 kts 189°
2026-04-25 07:46 21.04925 114.00893 29737 ft 452 kts 190°
2026-04-25 07:47 21.01765 114.00682 30060 ft 455 kts 190°
2026-04-25 07:47 20.98592 114.00462 30327 ft 455 kts 192°
2026-04-25 07:47 20.95530 113.99886 30589 ft 449 kts 202°
2026-04-25 07:47 20.92610 113.98756 30857 ft 442 kts 211°
2026-04-25 07:48 20.89950 113.97136 31151 ft 435 kts 220°
2026-04-25 07:48 20.87545 113.95239 31529 ft 433 kts 222°
2026-04-25 07:48 20.85127 113.93324 31933 ft 431 kts 222°
2026-04-25 07:48 20.82707 113.91416 32317 ft 430 kts 223°
2026-04-25 07:49 20.80290 113.89513 32686 ft 429 kts 223°
2026-04-25 07:49 20.77880 113.87616 33052 ft 428 kts 223°
2026-04-25 07:49 20.75479 113.85727 33406 ft 427 kts 223°
2026-04-25 07:49 20.73115 113.83867 33742 ft 426 kts 224°
2026-04-25 07:50 20.70723 113.81986 34048 ft 426 kts 224°
2026-04-25 07:50 20.68338 113.80110 34346 ft 424 kts 224°
2026-04-25 07:50 20.65968 113.78248 34661 ft 422 kts 224°
2026-04-25 07:50 20.64395 113.77013 34869 ft 421 kts 224°
2026-04-25 07:51 20.62025 113.75151 35167 ft 419 kts 224°
2026-04-25 07:51 20.59701 113.73326 35452 ft 418 kts 224°
2026-04-25 07:51 20.57360 113.71489 35736 ft 416 kts 224°
2026-04-25 07:51 20.54263 113.69058 36110 ft 415 kts 224°
2026-04-25 07:52 20.52691 113.67825 36296 ft 414 kts 224°
2026-04-25 07:52 20.50382 113.66014 36569 ft 412 kts 224°
2026-04-25 07:52 20.48084 113.64212 36829 ft 411 kts 224°
2026-04-25 07:52 20.45778 113.62405 37096 ft 409 kts 223°
2026-04-25 07:53 20.43504 113.60623 37334 ft 408 kts 223°
2026-04-25 07:53 20.41211 113.58826 37562 ft 407 kts 223°
2026-04-25 07:53 20.38931 113.57041 37775 ft 406 kts 223°
2026-04-25 07:53 20.36644 113.55251 37935 ft 406 kts 223°
2026-04-25 07:54 20.32170 113.51752 37967 ft 405 kts 223°
2026-04-25 07:54 20.27555 113.48145 37965 ft 406 kts 223°
2026-04-25 07:55 20.22986 113.44578 37963 ft 406 kts 223°
2026-04-25 07:55 20.18435 113.41028 37960 ft 407 kts 223°
2026-04-25 07:56 20.13854 113.37457 37963 ft 407 kts 223°
2026-04-25 07:56 20.09262 113.33880 37969 ft 408 kts 223°
2026-04-25 07:57 20.04695 113.30325 37971 ft 409 kts 223°
2026-04-25 07:57 20.00087 113.26742 37969 ft 410 kts 223°
2026-04-25 07:58 19.95479 113.23161 37961 ft 409 kts 223°
2026-04-25 07:58 19.90872 113.19584 37952 ft 409 kts 223°
2026-04-25 07:59 19.86291 113.16029 37953 ft 410 kts 223°
2026-04-25 07:59 19.81676 113.12450 37949 ft 410 kts 223°
2026-04-25 08:00 19.77071 113.08881 37955 ft 411 kts 223°
2026-04-25 08:00 19.72434 113.05291 37953 ft 411 kts 223°
2026-04-25 08:01 19.67822 113.01722 37960 ft 412 kts 223°
2026-04-25 08:01 19.63162 112.98120 37958 ft 413 kts 223°
2026-04-25 08:02 19.58530 112.94542 37958 ft 414 kts 223°
2026-04-25 08:02 19.53888 112.90958 37956 ft 414 kts 223°
2026-04-25 08:03 19.49222 112.87359 37954 ft 414 kts 223°
2026-04-25 08:03 19.44545 112.83754 37953 ft 414 kts 223°
2026-04-25 08:04 19.39912 112.80185 37952 ft 414 kts 223°
2026-04-25 08:04 19.35236 112.76585 37950 ft 415 kts 223°
2026-04-25 08:05 19.30588 112.73010 37952 ft 415 kts 222°
2026-04-25 08:05 19.25864 112.69445 37949 ft 416 kts 222°
2026-04-25 08:06 19.21169 112.65919 37953 ft 416 kts 222°
2026-04-25 08:06 19.16442 112.62363 37946 ft 416 kts 222°
2026-04-25 08:07 19.11725 112.58815 37949 ft 417 kts 221°
2026-04-25 08:07 19.06977 112.55245 37942 ft 417 kts 221°
2026-04-25 08:08 19.02257 112.51699 37947 ft 417 kts 221°
2026-04-25 08:08 18.97514 112.48132 37945 ft 418 kts 222°
2026-04-25 08:09 18.92774 112.44550 37948 ft 418 kts 222°
2026-04-25 08:09 18.88052 112.40984 37943 ft 418 kts 221°
2026-04-25 08:10 18.83295 112.37397 37950 ft 419 kts 221°
2026-04-25 08:10 18.78592 112.33854 37948 ft 419 kts 221°
2026-04-25 08:11 18.73830 112.30268 37946 ft 419 kts 221°
2026-04-25 08:11 18.69169 112.26618 37949 ft 416 kts 226°
2026-04-25 08:12 18.65091 112.22343 37940 ft 409 kts 234°
2026-04-25 08:12 18.61765 112.17553 37940 ft 405 kts 241°
2026-04-25 08:13 18.58641 112.12582 37938 ft 406 kts 240°
2026-04-25 08:14 18.53948 112.05164 37939 ft 406 kts 240°
2026-04-25 08:14 18.50803 112.00197 37937 ft 406 kts 240°
2026-04-25 08:15 18.47669 111.95252 37939 ft 406 kts 240°
2026-04-25 08:15 18.44515 111.90277 37937 ft 407 kts 240°
2026-04-25 08:16 18.41365 111.85314 37937 ft 407 kts 240°
2026-04-25 08:16 18.38211 111.80348 37938 ft 407 kts 240°
2026-04-25 08:17 18.35075 111.75414 37938 ft 408 kts 240°
2026-04-25 08:17 18.31940 111.70485 37934 ft 408 kts 240°
2026-04-25 08:18 18.28778 111.65518 37939 ft 408 kts 240°
2026-04-25 08:18 18.25613 111.60549 37941 ft 408 kts 240°
2026-04-25 08:19 18.22434 111.55563 37938 ft 409 kts 240°
2026-04-25 08:19 18.19282 111.50623 37936 ft 409 kts 240°
2026-04-25 08:20 18.16116 111.45664 37933 ft 409 kts 240°
2026-04-25 08:20 18.12940 111.40694 37936 ft 409 kts 240°
2026-04-25 08:21 18.09755 111.35714 37938 ft 410 kts 240°
2026-04-25 08:21 18.06566 111.30731 37938 ft 410 kts 240°
2026-04-25 08:22 18.03390 111.25772 37938 ft 410 kts 240°
2026-04-25 08:22 18.00193 111.20785 37933 ft 411 kts 240°
2026-04-25 08:23 17.97013 111.15828 37933 ft 411 kts 240°
2026-04-25 08:23 17.94350 111.11679 37934 ft 411 kts 240°
2026-04-25 08:24 17.90613 111.05863 37936 ft 411 kts 240°
2026-04-25 08:24 17.87942 111.01707 37937 ft 411 kts 240°
2026-04-25 08:25 17.84748 110.96743 37934 ft 412 kts 240°
2026-04-25 08:25 17.81537 110.91756 37935 ft 412 kts 240°
2026-04-25 08:26 17.78325 110.86771 37937 ft 412 kts 240°
2026-04-25 08:26 17.75110 110.81786 37932 ft 412 kts 240°
2026-04-25 08:27 17.71895 110.76803 37932 ft 412 kts 240°
2026-04-25 08:27 17.68668 110.71807 37929 ft 413 kts 240°
2026-04-25 08:28 17.65470 110.66859 37931 ft 413 kts 240°
2026-04-25 08:28 17.62240 110.61868 37926 ft 413 kts 240°
2026-04-25 08:29 17.59010 110.56879 37929 ft 413 kts 240°
2026-04-25 08:29 17.55779 110.51889 37930 ft 413 kts 240°
2026-04-25 08:30 17.52605 110.46991 37934 ft 414 kts 240°
2026-04-25 08:30 17.49372 110.42006 37931 ft 414 kts 240°
2026-04-25 08:31 17.46128 110.37008 37930 ft 414 kts 240°
2026-04-25 08:31 17.42889 110.32019 37931 ft 414 kts 240°
2026-04-25 08:32 17.39672 110.27046 37932 ft 414 kts 240°
2026-04-25 08:32 17.36477 110.22041 37929 ft 414 kts 240°
2026-04-25 08:33 17.33245 110.16983 37929 ft 414 kts 240°
2026-04-25 08:33 17.30055 110.12003 37929 ft 414 kts 240°
2026-04-25 08:34 17.26841 110.06992 37929 ft 414 kts 240°
2026-04-25 08:34 17.23624 110.01978 37930 ft 415 kts 240°
2026-04-25 08:35 17.20406 109.96969 37928 ft 415 kts 240°
2026-04-25 08:35 17.17180 109.91949 37928 ft 415 kts 240°
2026-04-25 08:36 17.13982 109.86976 37926 ft 415 kts 240°
2026-04-25 08:36 17.10741 109.81941 37930 ft 415 kts 240°
2026-04-25 08:37 17.07512 109.76928 37929 ft 415 kts 240°
2026-04-25 08:37 17.04303 109.71950 37925 ft 415 kts 240°
2026-04-25 08:38 17.01073 109.66942 37924 ft 415 kts 240°
2026-04-25 08:38 16.97819 109.61902 37932 ft 415 kts 240°
2026-04-25 08:39 16.95042 109.57602 37906 ft 416 kts 240°
2026-04-25 08:39 16.93413 109.55081 37674 ft 417 kts 240°
2026-04-25 08:39 16.91805 109.52594 37419 ft 417 kts 240°
2026-04-25 08:39 16.90179 109.50079 37163 ft 419 kts 240°
2026-04-25 08:40 16.88545 109.47553 36909 ft 420 kts 240°
2026-04-25 08:40 16.86905 109.45017 36659 ft 422 kts 239°
2026-04-25 08:40 16.85256 109.42471 36410 ft 424 kts 239°
2026-04-25 08:40 16.83604 109.39919 36057 ft 424 kts 239°
2026-04-25 08:41 16.81967 109.37391 35552 ft 426 kts 239°
2026-04-25 08:41 16.80305 109.34821 35107 ft 427 kts 239°
2026-04-25 08:41 16.78635 109.32238 34504 ft 431 kts 239°
2026-04-25 08:41 16.76940 109.29615 33551 ft 440 kts 239°
2026-04-25 08:42 16.75227 109.26968 32801 ft 440 kts 239°
2026-04-25 08:42 16.73506 109.24313 31979 ft 442 kts 239°
2026-04-25 08:42 16.71770 109.21636 31161 ft 445 kts 239°
2026-04-25 08:42 16.70042 109.18974 30601 ft 441 kts 239°
2026-04-25 08:43 16.68324 109.16326 30007 ft 438 kts 239°
2026-04-25 08:43 16.66620 109.13699 29319 ft 436 kts 239°
2026-04-25 08:43 16.64933 109.11101 28773 ft 430 kts 239°
2026-04-25 08:43 16.63260 109.08524 28171 ft 426 kts 239°
2026-04-25 08:44 16.61602 109.05972 27587 ft 423 kts 239°
2026-04-25 08:44 16.59961 109.03444 27008 ft 419 kts 239°
2026-04-25 08:44 16.58329 109.00933 26372 ft 418 kts 239°
2026-04-25 08:44 16.56706 108.98437 25835 ft 414 kts 239°
2026-04-25 08:45 16.55091 108.95959 25242 ft 412 kts 238°
2026-04-25 08:45 16.53468 108.93512 24637 ft 410 kts 238°
2026-04-25 08:45 16.51843 108.91079 24052 ft 409 kts 238°
2026-04-25 08:45 16.50245 108.88691 23464 ft 407 kts 238°
2026-04-25 08:46 16.48621 108.86259 22870 ft 403 kts 238°
2026-04-25 08:46 16.47028 108.83873 22297 ft 399 kts 238°
2026-04-25 08:46 16.45451 108.81509 21659 ft 396 kts 238°
2026-04-25 08:46 16.43882 108.79155 21120 ft 392 kts 237°
2026-04-25 08:47 16.42327 108.76823 20399 ft 393 kts 237°
2026-04-25 08:47 16.40776 108.74497 19898 ft 388 kts 237°
2026-04-25 08:47 16.39249 108.72208 19164 ft 390 kts 237°
2026-04-25 08:47 16.37701 108.69888 18597 ft 388 kts 237°
2026-04-25 08:48 16.36146 108.67559 18130 ft 382 kts 237°
2026-04-25 08:48 16.34646 108.65305 17343 ft 384 kts 237°
2026-04-25 08:48 16.33170 108.63015 16875 ft 377 kts 238°
2026-04-25 08:48 16.31732 108.60755 16261 ft 376 kts 238°
2026-04-25 08:49 16.30284 108.58478 15681 ft 373 kts 238°
2026-04-25 08:49 16.28853 108.56234 15073 ft 372 kts 238°
2026-04-25 08:49 16.27423 108.53999 14489 ft 371 kts 237°
2026-04-25 08:49 16.25993 108.51769 13910 ft 370 kts 237°
2026-04-25 08:50 16.24641 108.49663 13314 ft 369 kts 237°
2026-04-25 08:50 16.23225 108.47458 12798 ft 364 kts 237°
2026-04-25 08:50 16.21817 108.45267 12206 ft 362 kts 237°
2026-04-25 08:50 16.20439 108.43123 11664 ft 359 kts 237°
2026-04-25 08:51 16.19081 108.41010 11128 ft 356 kts 237°
2026-04-25 08:51 16.17601 108.38933 10354 ft 362 kts 225°
2026-04-25 08:51 16.15551 108.37459 9999 ft 354 kts 204°
2026-04-25 08:51 16.13205 108.36879 9852 ft 340 kts 182°
2026-04-25 08:52 16.10924 108.37238 9722 ft 326 kts 159°
2026-04-25 08:52 16.09026 108.38422 9589 ft 313 kts 141°
2026-04-25 08:52 16.07339 108.39787 9386 ft 302 kts 147°
2026-04-25 08:52 16.05463 108.40734 8999 ft 299 kts 163°
2026-04-25 08:53 16.03428 108.41124 8588 ft 297 kts 177°
2026-04-25 08:53 16.01395 108.41042 8199 ft 295 kts 188°
2026-04-25 08:53 15.99388 108.40613 7797 ft 293 kts 196°
2026-04-25 08:53 15.97461 108.39929 7420 ft 291 kts 202°
2026-04-25 08:54 15.95626 108.39043 7036 ft 290 kts 208°
2026-04-25 08:54 15.93891 108.37990 6665 ft 288 kts 213°
2026-04-25 08:54 15.92270 108.36788 6297 ft 287 kts 218°
2026-04-25 08:54 15.90764 108.35429 5926 ft 285 kts 224°
2026-04-25 08:55 15.89404 108.33941 5546 ft 284 kts 229°
2026-04-25 08:55 15.88191 108.32333 5175 ft 282 kts 235°
2026-04-25 08:55 15.87144 108.30632 4868 ft 275 kts 240°
2026-04-25 08:55 15.86267 108.28875 4358 ft 272 kts 246°
2026-04-25 08:56 15.85778 108.27676 4065 ft 269 kts 249°
2026-04-25 08:56 15.85225 108.25882 3847 ft 255 kts 262°
2026-04-25 08:56 15.85480 108.24122 3448 ft 246 kts 300°
2026-04-25 08:56 15.86660 108.22939 3132 ft 235 kts 335°
2026-04-25 08:57 15.88184 108.22429 2849 ft 227 kts 349°
2026-04-25 08:57 15.89713 108.22169 2575 ft 216 kts 353°
2026-04-25 08:57 15.91150 108.21968 2305 ft 200 kts 352°
2026-04-25 08:57 15.92454 108.21776 2073 ft 180 kts 353°
2026-04-25 08:58 15.93648 108.21602 1842 ft 167 kts 353°
2026-04-25 08:58 15.94757 108.21441 1648 ft 156 kts 353°
2026-04-25 08:58 15.95790 108.21290 1445 ft 144 kts 353°
2026-04-25 08:58 15.96744 108.21152 1258 ft 133 kts 354°
2026-04-25 08:59 15.97612 108.21024 1093 ft 124 kts 354°
2026-04-25 08:59 15.98490 108.20899 941 ft 129 kts 355°
2026-04-25 08:59 15.99361 108.20770 771 ft 126 kts 355°
2026-04-25 08:59 16.00237 108.20644 614 ft 127 kts 355°
2026-04-25 09:00 16.01103 108.20513 416 ft 122 kts 355°
2026-04-25 09:00 16.01938 108.20390 272 ft 121 kts 355°
2026-04-25 09:00 16.02776 108.20275 115 ft 122 kts 354°
2026-04-25 09:00 16.03601 108.20160 34 ft 107 kts 352°
2026-04-25 09:01 16.04133 108.20078 32 ft 49 kts 350°
2026-04-25 09:01 16.04332 108.20049 33 ft 18 kts 353°
2026-04-25 09:01 16.04399 108.20121 32 ft 16 kts 80°
2026-04-25 09:01 16.04357 108.20192 33 ft 13 kts 163°
2026-04-25 09:02 16.04249 108.20203 34 ft 18 kts 173°
2026-04-25 09:02 16.04112 108.20224 34 ft 22 kts 171°
2026-04-25 09:02 16.03975 108.20243 34 ft 16 kts 172°
2026-04-25 09:02 16.03869 108.20290 32 ft 18 kts 106°
2026-04-25 09:03 16.03865 108.20368 34 ft 0 kts 90°